Flag for U.S.A. Weather past 2 weeks in Asheville, North Carolina, U.S.A.

Now
68 °F

Cloudy.


Feels Like: 68 °F
Forecast: 56 / 72 °F
Wind: 3 mph from West

Location: Asheville Regional Airport

Current Time: Sep 18, 2014 at 8:55:36 PM

Latest Report: Sep 18, 2014 at 7:54 PM


Visibility: 10 mi

Pressure: 29.99 "Hg

Humidity: 76%

Dew point: 60 °F

Location of AshevilleLocation

Historic Weather in Asheville — Graph

°F

Asheville temperature yesterday

Maximum temperature yesterday: 72 °F (at 12:54 PM)
Minimum temperature yesterday: 61 °F (at 11:54 PM)
Average temperature yesterday: 67 °F

Past Weeks' High & Low Weather Summary

 TemperatureHumidityPressure
High83 °F (Sep 5, 4:54 PM)97% (Sep 4, 11:54 PM)30.30 "Hg (Sep 4, 11:54 PM)
Low60 °F (Sep 18, 8:01 AM)43% (Sep 18, 2:54 PM)29.90 "Hg (Sep 17, 4:54 PM)
Average70 °F83%30.08 "Hg
* Reported Sep 3 7:54 PM — Sep 18 7:54 PM, Asheville, Weather by CustomWeather, © 2014

Note: Actual official high and low records may vary slightly from our data, if they occured in-between our weather recording intervals... More about our weather records

Advertising

Asheville weather history for previous 24 hours

 ConditionsComfort  
Time TempWeatherWind HumidityBarometerVisibility
7:54 PM
Sep 18
68 °FCloudy.3 mph76%29.99 "Hg10 mi
6:54 PM70 °FOvercast.5 mph64%29.98 "Hg10 mi
5:54 PM71 °FCloudy.6 mph68%29.97 "Hg10 mi
4:54 PM74 °FPartly sunny.6 mph50%29.96 "Hg10 mi
3:54 PM75 °FSunny.5 mph48%29.95 "Hg10 mi
2:54 PM76 °FMostly cloudy.No wind43%29.96 "Hg10 mi
1:54 PM73 °FBroken clouds.5 mph50%29.98 "Hg10 mi
12:54 PM72 °FPassing clouds.No wind57%30.00 "Hg10 mi
11:54 AM70 °FMostly cloudy.5 mph61%30.01 "Hg10 mi
10:54 AM68 °FOvercast.3 mph68%30.01 "Hg10 mi
9:54 AM66 °FPartly sunny.7 mph70%30.00 "Hg10 mi
8:54 AM63 °FPartly sunny.6 mph84%29.99 "Hg10 mi
8:01 AM60 °FPassing clouds.9 mph93%30.04 "Hg9 mi
6:54 AM61 °FLow clouds.8 mph90%29.97 "Hg10 mi
5:54 AM61 °FLow clouds.8 mph93%29.95 "Hg7 mi
4:54 AM61 °FFog.No wind93%29.92 "Hg6 mi
3:54 AM61 °FFog.No wind93%29.94 "Hg6 mi
2:54 AM61 °FFog.No wind97%29.94 "Hg6 mi
1:54 AM62 °FLow clouds.No wind93%29.95 "Hg7 mi
12:54 AM61 °FMostly cloudy.No wind93%29.96 "Hg9 mi
11:54 PM
Sep 17
61 °FClear.No wind93%29.97 "Hg7 mi
10:54 PM63 °FClear.No wind93%29.97 "Hg9 mi
9:54 PM65 °FPassing clouds.3 mph87%29.95 "Hg10 mi
8:54 PM66 °FOvercast.No wind84%29.95 "Hg10 mi
Weather by CustomWeather, © 2014

See weather overviewHow to use our weather pages